Time,TemperatureF,DewpointF,PressureIn,WindDirection,WindDirectionDegrees,WindSpeedMPH,WindSpeedGustMPH,Humidity,HourlyPrecipIn,Conditions,Clouds,dailyrainin,SoftwareType,DateUTC
2013-02-25 00:00:00,57.8,55.8,29.95,ENE,59,0.0,4.0,93,0.00,,,0.00,Wunderground v.1.15,2013-02-25 05:00:00,
2013-02-25 00:10:00,57.9,55.9,29.96,ENE,59,0.0,4.0,93,0.00,,,0.00,Wunderground v.1.15,2013-02-25 05:10:00,
2013-02-25 00:20:00,58.3,56.3,29.95,ENE,59,0.0,4.0,93,0.00,,,0.00,Wunderground v.1.15,2013-02-25 05:20:00,
2013-02-25 00:30:00,58.6,56.3,29.94,ENE,59,0.0,4.0,92,0.00,,,0.00,Wunderground v.1.15,2013-02-25 05:30:00,
2013-02-25 00:40:00,59.0,56.7,29.94,ENE,76,0.0,4.0,92,0.00,,,0.00,Wunderground v.1.15,2013-02-25 05:40:00,
2013-02-25 00:50:00,59.1,56.5,29.93,ENE,76,0.0,4.0,91,0.00,,,0.00,Wunderground v.1.15,2013-02-25 05:50:00,
2013-02-25 01:00:00,59.5,56.9,29.94,ENE,76,0.0,4.0,91,0.00,,,0.00,Wunderground v.1.15,2013-02-25 06:00:00,
2013-02-25 01:10:00,59.6,56.7,29.94,ENE,76,0.0,4.0,90,0.00,,,0.00,Wunderground v.1.15,2013-02-25 06:10:00,
2013-02-25 01:20:00,59.8,56.9,29.95,ENE,76,0.0,4.0,90,0.00,,,0.00,Wunderground v.1.15,2013-02-25 06:20:00,
2013-02-25 01:30:00,59.9,57.3,29.94,ENE,76,0.0,4.0,91,0.00,,,0.00,Wunderground v.1.15,2013-02-25 06:30:00,
2013-02-25 01:40:00,59.9,57.3,29.94,ENE,76,0.0,4.0,91,0.00,,,0.00,Wunderground v.1.15,2013-02-25 06:40:00,
2013-02-25 01:50:00,60.0,57.4,29.93,ENE,76,0.0,4.0,91,0.00,,,0.00,Wunderground v.1.15,2013-02-25 06:50:00,
2013-02-25 02:00:00,60.2,57.3,29.93,ENE,75,0.0,4.0,90,0.00,,,0.00,Wunderground v.1.15,2013-02-25 07:00:00,
2013-02-25 02:10:00,60.4,57.5,29.93,ENE,74,0.0,4.0,90,0.00,,,0.00,Wunderground v.1.15,2013-02-25 07:10:00,
2013-02-25 02:20:00,60.4,57.5,29.92,ENE,74,0.0,4.0,90,0.00,,,0.00,Wunderground v.1.15,2013-02-25 07:20:00,
2013-02-25 02:30:00,60.4,57.8,29.92,ENE,74,0.0,4.0,91,0.00,,,0.00,Wunderground v.1.15,2013-02-25 07:30:00,
2013-02-25 02:40:00,60.4,57.8,29.92,ENE,74,0.0,4.0,91,0.00,,,0.00,Wunderground v.1.15,2013-02-25 07:40:00,
2013-02-25 02:50:00,60.5,57.9,29.92,ENE,74,0.0,4.0,91,0.00,,,0.01,Wunderground v.1.15,2013-02-25 07:50:00,
2013-02-25 03:00:00,60.6,58.3,29.92,ENE,74,0.0,4.0,92,0.00,,,0.01,Wunderground v.1.15,2013-02-25 08:00:00,
2013-02-25 03:10:00,60.6,58.6,29.92,ENE,74,0.0,4.0,93,0.00,,,0.02,Wunderground v.1.15,2013-02-25 08:10:00,
2013-02-25 03:20:00,60.5,58.5,29.92,ENE,74,0.0,4.0,93,0.05,,,0.03,Wunderground v.1.15,2013-02-25 08:20:00,
2013-02-25 03:30:00,60.4,58.7,29.91,ENE,74,0.0,4.0,94,0.05,,,0.03,Wunderground v.1.15,2013-02-25 08:30:00,
2013-02-25 03:40:00,60.3,58.6,29.90,ENE,74,0.0,4.0,94,0.00,,,0.04,Wunderground v.1.15,2013-02-25 08:40:00,
2013-02-25 03:50:00,60.2,58.5,29.91,ENE,74,0.0,4.0,94,0.00,,,0.04,Wunderground v.1.15,2013-02-25 08:50:00,
2013-02-25 04:00:00,59.9,58.2,29.89,ENE,74,0.0,4.0,94,0.00,,,0.05,Wunderground v.1.15,2013-02-25 09:00:00,
2013-02-25 04:10:00,59.8,58.4,29.90,ENE,74,0.0,4.0,95,0.00,,,0.05,Wunderground v.1.15,2013-02-25 09:10:00,
2013-02-25 04:20:00,59.9,58.5,29.90,ENE,74,0.0,4.0,95,0.00,,,0.06,Wunderground v.1.15,2013-02-25 09:20:00,
2013-02-25 04:30:00,60.0,58.6,29.89,ENE,74,0.0,4.0,95,0.00,,,0.06,Wunderground v.1.15,2013-02-25 09:30:00,
2013-02-25 04:40:00,60.2,59.1,29.89,ENE,74,0.0,4.0,96,0.00,,,0.06,Wunderground v.1.15,2013-02-25 09:40:00,
2013-02-25 04:50:00,60.3,59.2,29.91,ENE,74,0.0,4.0,96,0.00,,,0.07,Wunderground v.1.15,2013-02-25 09:50:00,
2013-02-25 05:00:00,60.4,59.3,29.92,ENE,74,0.0,4.0,96,0.04,,,0.08,Wunderground v.1.15,2013-02-25 10:00:00,
2013-02-25 05:10:00,60.6,59.5,29.91,ENE,74,0.0,4.0,96,0.24,,,0.12,Wunderground v.1.15,2013-02-25 10:10:00,
2013-02-25 05:20:00,60.7,59.6,29.91,ENE,74,0.0,4.0,96,0.06,,,0.13,Wunderground v.1.15,2013-02-25 10:20:00,
2013-02-25 05:30:00,60.8,59.9,29.91,ENE,74,0.0,4.0,97,0.06,,,0.13,Wunderground v.1.15,2013-02-25 10:30:00,
2013-02-25 05:40:00,60.9,60.0,29.91,ENE,74,0.0,4.0,97,0.06,,,0.14,Wunderground v.1.15,2013-02-25 10:40:00,
2013-02-25 05:50:00,60.9,60.0,29.91,ENE,59,0.0,4.0,97,0.20,,,0.17,Wunderground v.1.15,2013-02-25 10:50:00,
2013-02-25 06:00:00,60.8,59.9,29.91,NE,49,1.0,1.0,97,0.08,,,0.18,Wunderground v.1.15,2013-02-25 11:00:00,
2013-02-25 06:10:00,60.6,59.7,29.91,NE,49,0.0,4.0,97,0.00,,,0.18,Wunderground v.1.15,2013-02-25 11:10:00,
2013-02-25 06:20:00,60.4,59.5,29.92,NE,34,0.0,4.0,97,0.00,,,0.18,Wunderground v.1.15,2013-02-25 11:20:00,
2013-02-25 06:30:00,60.1,59.2,29.92,NNW,343,0.0,4.0,97,0.08,,,0.20,Wunderground v.1.15,2013-02-25 11:30:00,
2013-02-25 06:40:00,60.0,59.1,29.92,NE,56,1.0,4.0,97,0.25,,,0.22,Wunderground v.1.15,2013-02-25 11:40:00,
2013-02-25 06:50:00,59.8,58.9,29.92,ENE,69,1.0,1.0,97,0.29,,,0.33,Wunderground v.1.15,2013-02-25 11:50:00,
2013-02-25 07:00:00,59.9,59.0,29.93,NNE,23,0.0,4.0,97,0.26,,,0.38,Wunderground v.1.15,2013-02-25 12:00:00,
2013-02-25 07:10:00,60.2,59.3,29.93,NNE,13,1.0,1.0,97,0.18,,,0.42,Wunderground v.1.15,2013-02-25 12:10:00,
2013-02-25 07:20:00,60.4,59.5,29.92,ENE,74,0.0,4.0,97,0.12,,,0.44,Wunderground v.1.15,2013-02-25 12:20:00,
2013-02-25 07:30:00,60.6,59.7,29.91,NE,44,0.0,4.0,97,0.20,,,0.47,Wunderground v.1.15,2013-02-25 12:30:00,
2013-02-25 07:40:00,60.5,59.6,29.91,NNE,28,0.0,4.0,97,0.13,,,0.49,Wunderground v.1.15,2013-02-25 12:40:00,
2013-02-25 07:50:00,60.4,59.5,29.92,NNW,340,0.0,5.0,97,0.55,,,0.57,Wunderground v.1.15,2013-02-25 12:50:00,
2013-02-25 08:00:00,60.5,59.6,29.93,NNW,331,0.0,4.0,97,0.18,,,0.63,Wunderground v.1.15,2013-02-25 13:00:00,
2013-02-25 08:10:00,60.7,60.1,29.91,NE,51,1.0,4.0,98,0.49,,,0.66,Wunderground v.1.15,2013-02-25 13:10:00,
2013-02-25 08:20:00,60.8,60.2,29.92,NNE,24,1.0,1.0,98,0.10,,,0.67,Wunderground v.1.15,2013-02-25 13:20:00,
2013-02-25 08:30:00,60.8,60.2,29.94,NE,45,1.0,1.0,98,0.18,,,0.71,Wunderground v.1.15,2013-02-25 13:30:00,
2013-02-25 08:40:00,60.9,60.3,29.95,ESE,108,0.0,4.0,98,0.05,,,0.71,Wunderground v.1.15,2013-02-25 13:40:00,
2013-02-25 08:50:00,60.9,60.3,29.95,ESE,112,0.0,4.0,98,0.00,,,0.72,Wunderground v.1.15,2013-02-25 13:50:00,
2013-02-25 09:00:00,61.1,60.5,29.94,NE,43,0.0,4.0,98,0.00,,,0.72,Wunderground v.1.15,2013-02-25 14:00:00,
2013-02-25 09:20:00,61.4,60.8,29.95,NW,315,1.0,1.0,98,0.00,,,0.72,Wunderground v.1.15,2013-02-25 14:20:00,
2013-02-25 09:30:00,61.5,60.9,29.96,WSW,255,0.0,4.0,98,0.00,,,0.72,Wunderground v.1.15,2013-02-25 14:30:00,
2013-02-25 09:40:00,61.3,60.7,29.93,NE,53,0.0,4.0,98,0.00,,,0.72,Wunderground v.1.15,2013-02-25 14:40:00,
2013-02-25 09:50:00,61.4,60.8,29.93,ENE,76,1.0,1.0,98,0.00,,,0.72,Wunderground v.1.15,2013-02-25 14:50:00,
2013-02-25 10:00:00,61.6,61.0,29.93,NE,56,1.0,1.0,98,0.00,,,0.72,Wunderground v.1.15,2013-02-25 15:00:00,
2013-02-25 10:10:00,61.8,61.2,29.93,NE,40,0.0,4.0,98,0.00,,,0.72,Wunderground v.1.15,2013-02-25 15:10:00,
2013-02-25 10:20:00,61.8,61.2,29.93,North,350,0.0,4.0,98,0.00,,,0.72,Wunderground v.1.15,2013-02-25 15:20:00,
2013-02-25 10:30:00,62.0,61.4,29.92,NE,46,0.0,4.0,98,0.00,,,0.72,Wunderground v.1.15,2013-02-25 15:30:00,
2013-02-25 10:40:00,61.8,61.2,29.92,NE,38,2.0,2.0,98,0.00,,,0.72,Wunderground v.1.15,2013-02-25 15:40:00,
2013-02-25 10:50:00,62.0,61.1,29.93,NE,44,1.0,1.0,97,0.00,,,0.72,Wunderground v.1.15,2013-02-25 15:50:00,
2013-02-25 11:00:00,62.2,61.3,29.93,NE,37,1.0,1.0,97,0.00,,,0.72,Wunderground v.1.15,2013-02-25 16:00:00,
2013-02-25 11:10:00,62.3,61.4,29.92,NE,56,1.0,1.0,97,0.00,,,0.72,Wunderground v.1.15,2013-02-25 16:10:00,
2013-02-25 11:20:00,62.3,61.4,29.92,ENE,61,1.0,4.0,97,0.00,,,0.72,Wunderground v.1.15,2013-02-25 16:20:00,
2013-02-25 11:30:00,62.4,61.5,29.92,ENE,70,1.0,1.0,97,0.00,,,0.72,Wunderground v.1.15,2013-02-25 16:30:00,
2013-02-25 11:40:00,62.6,61.7,29.92,ENE,77,1.0,1.0,97,0.00,,,0.72,Wunderground v.1.15,2013-02-25 16:40:00,
2013-02-25 11:50:00,62.7,61.8,29.91,NE,43,0.0,4.0,97,0.00,,,0.72,Wunderground v.1.15,2013-02-25 16:50:00,
2013-02-25 12:00:00,62.9,62.0,29.91,NE,51,1.0,1.0,97,0.00,,,0.72,Wunderground v.1.15,2013-02-25 17:00:00,
2013-02-25 12:10:00,63.0,61.8,29.94,SW,228,2.0,9.0,96,0.00,,,0.72,Wunderground v.1.15,2013-02-25 17:10:00,
2013-02-25 12:20:00,62.7,61.5,29.93,NE,38,1.0,1.0,96,0.00,,,0.72,Wunderground v.1.15,2013-02-25 17:20:00,
2013-02-25 12:30:00,62.8,61.3,29.92,ESE,120,1.0,1.0,95,0.00,,,0.72,Wunderground v.1.15,2013-02-25 17:30:00,
2013-02-25 12:40:00,63.2,61.4,29.91,ENE,67,1.0,4.0,94,0.00,,,0.72,Wunderground v.1.15,2013-02-25 17:40:00,
2013-02-25 12:50:00,63.7,61.6,29.92,North,10,0.0,4.0,93,0.00,,,0.72,Wunderground v.1.15,2013-02-25 17:50:00,
2013-02-25 13:00:00,63.4,61.0,29.91,North,10,1.0,1.0,92,0.00,,,0.72,Wunderground v.1.15,2013-02-25 18:00:00,
2013-02-25 13:10:00,63.2,61.1,29.90,WSW,252,1.0,4.0,93,0.00,,,0.72,Wunderground v.1.15,2013-02-25 18:10:00,
2013-02-25 13:20:00,62.6,60.8,29.94,NNE,31,5.0,12.0,94,4.20,,,0.90,Wunderground v.1.15,2013-02-25 18:20:00,
2013-02-25 13:30:00,62.1,60.7,29.90,NNE,22,3.0,3.0,95,0.20,,,1.10,Wunderground v.1.15,2013-02-25 18:30:00,
2013-02-25 13:40:00,61.9,60.7,29.90,WSW,240,1.0,1.0,96,0.06,,,1.10,Wunderground v.1.15,2013-02-25 18:40:00,
2013-02-25 13:50:00,61.9,60.7,29.89,SE,140,0.0,4.0,96,0.00,,,1.10,Wunderground v.1.15,2013-02-25 18:50:00,
2013-02-25 14:00:00,61.9,61.0,29.89,NE,38,0.0,4.0,97,0.00,,,1.10,Wunderground v.1.15,2013-02-25 19:00:00,
2013-02-25 14:10:00,62.0,61.1,29.89,ENE,58,0.0,4.0,97,0.00,,,1.10,Wunderground v.1.15,2013-02-25 19:10:00,
2013-02-25 14:20:00,62.0,61.1,29.87,NE,49,1.0,1.0,97,0.00,,,1.10,Wunderground v.1.15,2013-02-25 19:20:00,
2013-02-25 14:30:00,62.1,61.2,29.86,NNE,26,0.0,4.0,97,0.00,,,1.10,Wunderground v.1.15,2013-02-25 19:30:00,
2013-02-25 14:40:00,62.2,61.3,29.86,NE,51,1.0,4.0,97,0.00,,,1.11,Wunderground v.1.15,2013-02-25 19:40:00,
2013-02-25 14:50:00,62.2,61.3,29.86,NNE,30,1.0,1.0,97,0.06,,,1.12,Wunderground v.1.15,2013-02-25 19:50:00,
2013-02-25 15:00:00,62.3,61.4,29.87,NNE,24,0.0,4.0,97,0.06,,,1.13,Wunderground v.1.15,2013-02-25 20:00:00,
2013-02-25 15:10:00,62.4,61.5,29.87,NE,36,0.0,4.0,97,0.04,,,1.13,Wunderground v.1.15,2013-02-25 20:10:00,
2013-02-25 15:20:00,62.5,61.9,29.88,NE,55,0.0,4.0,98,0.04,,,1.14,Wunderground v.1.15,2013-02-25 20:20:00,
2013-02-25 15:30:00,62.5,61.9,29.86,NNE,15,0.0,4.0,98,0.04,,,1.15,Wunderground v.1.15,2013-02-25 20:30:00,
2013-02-25 15:40:00,62.5,61.9,29.86,NE,46,1.0,1.0,98,0.07,,,1.16,Wunderground v.1.15,2013-02-25 20:40:00,
2013-02-25 15:50:00,62.6,62.0,29.86,ENE,59,0.0,4.0,98,0.04,,,1.16,Wunderground v.1.15,2013-02-25 20:50:00,
2013-02-25 16:00:00,62.7,62.1,29.86,NE,51,0.0,4.0,98,0.00,,,1.16,Wunderground v.1.15,2013-02-25 21:00:00,
2013-02-25 16:10:00,62.7,62.1,29.86,NE,54,1.0,4.0,98,0.00,,,1.16,Wunderground v.1.15,2013-02-25 21:10:00,
2013-02-25 16:20:00,62.8,62.2,29.87,NE,43,0.0,4.0,98,0.00,,,1.17,Wunderground v.1.15,2013-02-25 21:20:00,
2013-02-25 16:30:00,62.7,62.1,29.86,NE,49,0.0,4.0,98,0.07,,,1.18,Wunderground v.1.15,2013-02-25 21:30:00,
2013-02-25 16:40:00,62.6,62.0,29.86,NE,55,0.0,4.0,98,0.04,,,1.19,Wunderground v.1.15,2013-02-25 21:40:00,
2013-02-25 16:50:00,62.4,61.8,29.86,NE,41,1.0,4.0,98,0.15,,,1.22,Wunderground v.1.15,2013-02-25 21:50:00,
2013-02-25 17:00:00,62.2,61.6,29.85,NE,51,1.0,5.0,98,0.07,,,1.23,Wunderground v.1.15,2013-02-25 22:00:00,
2013-02-25 17:10:00,62.1,61.5,29.87,NNE,12,1.0,1.0,98,0.00,,,1.23,Wunderground v.1.15,2013-02-25 22:10:00,
2013-02-25 17:20:00,61.7,61.1,29.88,North,360,1.0,1.0,98,0.00,,,1.24,Wunderground v.1.15,2013-02-25 22:20:00,
2013-02-25 17:30:00,61.3,60.7,29.88,NNE,19,0.0,4.0,98,0.00,,,1.24,Wunderground v.1.15,2013-02-25 22:30:00,
2013-02-25 17:40:00,60.9,60.3,29.89,NE,47,1.0,4.0,98,0.00,,,1.24,Wunderground v.1.15,2013-02-25 22:40:00,
2013-02-25 17:50:00,60.4,59.8,29.89,NE,51,1.0,1.0,98,0.00,,,1.24,Wunderground v.1.15,2013-02-25 22:50:00,
2013-02-25 18:00:00,60.1,59.2,29.89,NW,321,1.0,1.0,97,0.00,,,1.24,Wunderground v.1.15,2013-02-25 23:00:00,
2013-02-25 18:10:00,60.0,59.4,29.88,NNE,27,1.0,1.0,98,0.08,,,1.25,Wunderground v.1.15,2013-02-25 23:10:00,
2013-02-25 18:20:00,59.8,59.2,29.88,NNE,32,3.0,3.0,98,0.09,,,1.28,Wunderground v.1.15,2013-02-25 23:20:00,
2013-02-25 18:30:00,59.7,59.1,29.90,NE,36,1.0,4.0,98,0.21,,,1.32,Wunderground v.1.15,2013-02-25 23:30:00,
2013-02-25 18:40:00,59.9,59.3,29.90,North,5,1.0,1.0,98,0.35,,,1.36,Wunderground v.1.15,2013-02-25 23:40:00,
2013-02-25 18:50:00,60.0,59.4,29.90,NE,42,2.0,2.0,98,0.14,,,1.38,Wunderground v.1.15,2013-02-25 23:50:00,
2013-02-25 19:00:00,60.1,59.5,29.91,NE,48,1.0,4.0,98,0.19,,,1.41,Wunderground v.1.15,2013-02-26 00:00:00,
2013-02-25 19:10:00,60.3,59.7,29.90,NE,36,0.0,4.0,98,0.10,,,1.43,Wunderground v.1.15,2013-02-26 00:10:00,
2013-02-25 19:20:00,60.4,59.8,29.90,NE,39,1.0,4.0,98,0.15,,,1.46,Wunderground v.1.15,2013-02-26 00:20:00,
2013-02-25 19:30:00,60.4,59.8,29.88,NE,50,1.0,4.0,98,0.11,,,1.47,Wunderground v.1.15,2013-02-26 00:30:00,
2013-02-25 19:40:00,60.6,60.0,29.88,East,80,1.0,4.0,98,0.06,,,1.48,Wunderground v.1.15,2013-02-26 00:40:00,
2013-02-25 19:50:00,60.8,60.2,29.88,NE,36,1.0,1.0,98,0.00,,,1.48,Wunderground v.1.15,2013-02-26 00:50:00,
2013-02-25 20:00:00,61.0,60.4,29.87,NE,49,1.0,1.0,98,0.00,,,1.48,Wunderground v.1.15,2013-02-26 01:00:00,
2013-02-25 20:10:00,61.3,60.7,29.86,North,5,1.0,1.0,98,0.00,,,1.49,Wunderground v.1.15,2013-02-26 01:10:00,
2013-02-25 20:20:00,61.9,61.3,29.86,NE,53,1.0,1.0,98,0.00,,,1.49,Wunderground v.1.15,2013-02-26 01:20:00,
2013-02-25 20:30:00,62.4,62.1,29.86,ENE,78,1.0,4.0,99,0.00,,,1.49,Wunderground v.1.15,2013-02-26 01:30:00,
2013-02-25 20:40:00,62.9,62.3,29.86,NE,44,1.0,1.0,98,0.00,,,1.50,Wunderground v.1.15,2013-02-26 01:40:00,
2013-02-25 20:50:00,63.3,63.0,29.85,ENE,57,1.0,6.0,99,0.00,,,1.50,Wunderground v.1.15,2013-02-26 01:50:00,
2013-02-25 21:00:00,63.7,63.4,29.86,ENE,61,1.0,1.0,99,0.00,,,1.51,Wunderground v.1.15,2013-02-26 02:00:00,
2013-02-25 21:10:00,64.1,63.8,29.86,NE,40,1.0,1.0,99,0.05,,,1.52,Wunderground v.1.15,2013-02-26 02:10:00,
2013-02-25 21:20:00,64.3,64.0,29.85,NE,50,1.0,4.0,99,0.04,,,1.52,Wunderground v.1.15,2013-02-26 02:20:00,
2013-02-25 21:30:00,64.5,64.2,29.85,NNE,28,1.0,6.0,99,0.00,,,1.52,Wunderground v.1.15,2013-02-26 02:30:00,
2013-02-25 21:40:00,64.8,64.2,29.84,NNE,28,2.0,2.0,98,0.00,,,1.52,Wunderground v.1.15,2013-02-26 02:40:00,
2013-02-25 21:50:00,65.0,64.7,29.84,ENE,64,0.0,4.0,99,0.00,,,1.52,Wunderground v.1.15,2013-02-26 02:50:00,
2013-02-25 22:00:00,65.2,64.9,29.83,NE,55,0.0,4.0,99,0.00,,,1.52,Wunderground v.1.15,2013-02-26 03:00:00,
2013-02-25 22:10:00,65.4,65.1,29.83,East,84,1.0,1.0,99,0.00,,,1.52,Wunderground v.1.15,2013-02-26 03:10:00,
2013-02-25 22:20:00,65.7,65.4,29.83,ENE,59,1.0,1.0,99,0.00,,,1.52,Wunderground v.1.15,2013-02-26 03:20:00,
2013-02-25 22:30:00,66.0,65.7,29.83,NE,54,2.0,5.0,99,0.00,,,1.52,Wunderground v.1.15,2013-02-26 03:30:00,
2013-02-25 22:40:00,66.2,65.9,29.82,ENE,72,3.0,3.0,99,0.00,,,1.52,Wunderground v.1.15,2013-02-26 03:40:00,
2013-02-25 22:50:00,66.3,66.0,29.82,East,80,2.0,2.0,99,0.00,,,1.52,Wunderground v.1.15,2013-02-26 03:50:00,
2013-02-25 23:00:00,66.4,66.1,29.82,ENE,75,2.0,2.0,99,0.00,,,1.52,Wunderground v.1.15,2013-02-26 04:00:00,
2013-02-25 23:10:00,66.4,66.1,29.83,ENE,77,2.0,2.0,99,0.00,,,1.52,Wunderground v.1.15,2013-02-26 04:10:00,
2013-02-25 23:20:00,66.6,66.3,29.83,ENE,75,1.0,1.0,99,0.00,,,1.52,Wunderground v.1.15,2013-02-26 04:20:00,
2013-02-25 23:30:00,66.7,66.4,29.83,ENE,75,1.0,4.0,99,0.00,,,1.52,Wunderground v.1.15,2013-02-26 04:30:00,
2013-02-25 23:40:00,66.7,66.4,29.82,ENE,66,1.0,1.0,99,0.00,,,1.52,Wunderground v.1.15,2013-02-26 04:40:00,
2013-02-25 23:50:00,66.6,66.0,29.81,NE,55,0.0,4.0,98,0.00,,,1.52,Wunderground v.1.15,2013-02-26 04:50:00,